Location: N�rnberg
(49.4489°N, 11.0797°E)
Time: 18:35:10
(UTC+01:00)

ISS - Pass Details

Date: 17 November 2017
Orbit: 401 x 407 km, 51.6° (Epoch: 18 November)

Event Time Altitude Azimuth Distance (km) Brightness Sun altitude
Exits shadow 04:48:30 14° 143° (SE) 1,237 -1.0 -26.0°
Drops below altitude 10° 04:49:03 10° 139° (SE) 1,450 -0.6 -25.9°
Sets 04:51:11 0° 132° (SE) 2,306 0.7 -25.5°
